[[{"header":{"parameterUnit":"m.s-1","parameterCategory":1,"la1":30.2991,"la2":30.254,"lo1":-89.0895,"lo2":-89.0444,"dy":0.0017,"dx":0.0017,"nx":28,"ny":28,"refTime":"2023-03-29T21:00:00:Z","depth":0,"parameterNumber":2,"parameterNumberName":"U-component_of_WINDS"},"data":[0,0,0,0,0,0,0,0,0,0,0,0,0,0,0,0,0,0,0,0,0,0,0,0,0,0,0,0,0,0,0,0,0,0,0,0,0,0,0,0,0,0,0,0,0,0,0,0,0,0,0,0,0,0,0,0,0,0,-2.9493,-2.9494,0,-2.9601,-2.9602,-2.9603,-2.9628,-2.9627,-2.9627,-2.9626,-2.9742,-2.9745,-2.9749,0,0,0,0,0,0,0,0,0,0,0,0,0,-2.9313,-2.9316,-2.9493,-2.9494,-2.9495,-2.9601,-2.9602,-2.9604,-2.9628,-2.9627,-2.9627,-2.9626,-2.974,-2.9745,-2.9749,0,0,0,0,0,0,0,0,0,0,0,0,0,-2.9403,-2.9317,-2.9493,-2.952,-2.9524,-2.96,-2.9602,-2.9604,-2.9629,-2.9627,-2.9626,-2.9625,-2.9739,-2.9744,-2.975,-2.9808,0,0,-2.9767,-2.977,0,0,0,0,0,0,0,0,-2.9398,-2.941,-2.9515,-2.9519,-2.9523,-2.96,-2.9581,-2.9673,-2.9629,-2.9589,-2.9626,-2.9625,-2.9696,-2.9705,-2.9728,-2.9813,-2.9818,-2.9768,-2.9771,-2.9774,-2.9775,0,0,0,0,0,0,0,-2.9392,-2.9405,-2.9536,-2.9516,-2.9521,-2.9529,-2.9541,-2.9599,-2.9648,-2.9592,-2.9594,-2.9607,-2.9698,-2.9722,-2.9731,-2.982,-2.9768,-2.9773,-2.9776,-2.9778,-2.996,-2.9961,0,0,0,0,0,0,-2.938,-2.94,-2.9532,-2.9539,-2.9456,-2.9533,-2.9546,-2.9576,-2.9647,-2.9657,-2.9607,-2.9607,-2.9713,-2.9724,-2.9735,-2.9807,-2.9774,-2.9779,-2.9782,-2.9958,-2.996,-2.9962,0,0,0,0,0,0,-2.9376,-2.9392,-2.9528,-2.947,-2.9488,-2.9538,-2.9571,-2.9579,-2.9604,-2.9658,-2.9668,-2.9623,-2.9713,-2.9727,-2.9789,-2.9812,-2.9782,-2.9787,-2.9957,-2.9959,-2.9961,-2.9953,0,0,0,0,0,0,-2.9371,-2.939,-2.9411,-2.947,-2.9491,-2.9579,-2.9573,-2.9582,-2.9613,-2.9614,-2.9676,-2.9685,-2.9713,-2.9781,-2.9795,-2.9819,-2.9791,-2.9955,-2.9958,-2.996,-2.9951,-2.9954,-2.9957,0,0,0,0,0,-2.9364,-2.9405,-2.9412,-2.9428,-2.9518,-2.958,-2.9592,-2.9622,-2.9614,-2.9637,-2.9672,-2.9683,-2.9807,-2.9787,-2.9803,-2.9829,-2.9954,-2.9957,-2.996,-2.995,-2.9953,-2.9957,0,0,0,0,0,0,-2.9349,-2.9414,-2.9422,-2.9483,-2.9526,-2.9584,-2.9613,-2.9625,-2.9672,-2.9671,-2.9708,-2.9722,-2.9782,-2.9812,-2.9789,-2.989,-2.988,-2.9887,-2.9867,-2.9871,-2.9874,-2.9865,-2.9796,0,0,0,0,0,-2.9353,-2.9396,-2.9451,-2.95,-2.9521,-2.9563,-2.9591,-2.9611,-2.9657,-2.9676,-2.9716,-2.9762,-2.9811,-2.9843,-2.9892,-2.9956,-2.997,-2.9982,-2.9985,-2.9987,-2.9992,-3.0029,-3.0035,-2.9972,-2.9972,-2.9972,0,0,-2.9361,-2.9402,-2.9427,-2.9498,-2.9533,-2.9578,-2.9578,-2.9626,-2.9661,-2.9684,-2.9744,-2.9776,-2.983,-2.9893,-2.9923,-2.992,-3.0013,-2.9991,-2.9992,-2.9996,-3.0033,-3.0039,-3.0044,-2.9974,-2.9974,-2.9973,0,0,-2.9399,-2.9434,-2.9478,-2.9513,-2.9566,-2.9595,-2.9605,-2.9662,-2.9683,-2.9745,-2.9763,-2.9806,-2.989,-2.9928,-2.9958,-3.0011,-3.0023,-3.0027,-3.0041,-3.0077,-3.0081,-3.0086,-3.0105,-3.0111,-3.0032,-3.0032,-3.0032,0,-2.9403,-2.947,-2.95,-2.9547,-2.9578,-2.9599,-2.9646,-2.9679,-2.9746,-2.9768,-2.9763,-2.987,-2.9908,-2.998,-2.9993,-3.0017,-3.0032,-3.0019,-3.0078,-3.0083,-3.0088,-3.0106,-3.0113,-3.0032,-3.0032,-3.0032,-3.0032,0,-2.9472,-2.9519,-2.9549,-2.9611,-2.9646,-2.9692,-2.9731,-2.9763,-2.9779,-2.9809,-2.9872,-2.9918,-2.9976,-2.9996,-3.0013,-3.0071,-3.0068,-3.007,-3.0062,-3.0093,-3.0111,-3.0118,-3.0032,-3.0032,-3.0032,-3.0032,0,0,-2.9503,-2.9581,-2.9591,-2.962,-2.968,-2.9718,-2.9766,-2.9822,-2.9848,-2.9895,-2.9937,-3.0008,-3.001,-3.0045,-3.0067,-3.0098,-3.0138,-3.0097,-3.0099,-3.0103,-3.0205,-3.0202,-3.021,-3.0146,-3.0148,-3.0149,-3.02,0,-2.9548,-2.9632,-2.9661,-2.9732,-2.9776,-2.9797,-2.9839,-2.9882,-2.9911,-2.9954,-2.9987,-3.0037,-3.0037,-3.0057,-3.0089,-3.0126,-3.0158,-3.0123,-3.0187,-3.0188,-3.0171,-3.0219,-3.0216,-3.0263,-3.0208,-3.0209,-3.021,0,-2.9612,-2.9656,-2.9731,-2.9786,-2.9805,-2.9842,-2.9896,-2.9936,-2.9986,-3.0005,-3.0043,-3.0063,-3.0116,-3.0105,-3.018,-3.0155,-3.0183,-3.0205,-3.0208,-3.0214,-3.02,-3.0227,-3.0278,-3.0285,-3.0221,-3.022,-3.0219,0,-2.9626,-2.9706,-2.976,-2.9784,-2.985,-2.9875,-2.9904,-2.9952,-2.9984,-3.0032,-3.0053,-3.0107,-3.0136,-3.0179,-3.0213,-3.0202,-3.0285,-3.0276,-3.0303,-3.0302,-3.0319,-3.0317,-3.0375,-3.0338,-3.0338,-3.0338,-3.0337,0,-2.9673,-2.9718,-2.9767,-2.9801,-2.9852,-2.9886,-2.9936,-2.9967,-3.001,-3.0051,-3.0074,-3.0113,-3.0156,-3.0201,-3.0229,-3.0287,-3.03,-3.0318,-3.0325,-3.0316,-3.0313,-3.0334,-3.0332,-3.034,-3.0339,-3.0339,-3.0338,0,-2.9698,-2.9733,-2.9794,-2.985,-2.9866,-2.9901,-2.9951,-2.9985,-3.0015,-3.0067,-3.0081,-3.0129,-3.0183,-3.0222,-3.0293,-3.0312,-3.0373,-3.038,-3.0356,-3.0359,-3.0383,-3.038,-3.0456,-3.0468,-3.0423,-3.0423,-3.0424,0,-2.9725,-2.976,-2.982,-2.9848,-2.9876,-2.9922,-2.9954,-2.9989,-3.0022,-3.0081,-3.0108,-3.0164,-3.0209,-3.0295,-3.0338,-3.0392,-3.04,-3.0423,-3.0409,-3.0398,-3.0401,-3.0398,-3.0402,-3.0425,-3.0425,-3.0426,-3.0426,0,-2.977,-2.9785,-2.9829,-2.988,-2.9917,-2.9959,-3.0001,-3.0024,-3.0067,-3.0103,-3.0157,-3.0193,-3.0264,-3.0319,-3.0377,-3.041,-3.0425,-3.043,-3.0439,-3.043,-3.0414,-3.0423,-3.0361,-3.0428,-3.0428,-3.0428,-3.0428,-3.0428,-2.9797,-2.9829,-2.9875,-2.9924,-2.9959,-2.9998,-3.0033,-3.0067,-3.0112,-3.0171,-3.019,-3.0247,-3.0297,-3.0377,-3.0409,-3.0456,-3.0455,-3.0468,-3.0471,-3.0474,-3.0473,-3.0407,-3.0467,-3.0467,-3.0467,-3.0467,-3.0467,0,-2.9843,-2.9874,-2.9918,-2.9976,-3.0014,-3.0024,-3.0072,-3.0104,-3.0153,-3.0197,-3.0241,-3.0304,-3.0358,-3.0404,-3.046,-3.0488,-3.0497,-3.0502,-3.05,-3.0507,-3.0471,-3.0457,-3.0494,-3.0494,-3.0494,-3.0494,-3.0494,-3.0494,-2.9871,-2.9925,-2.9946,-3.0019,-3.005,-3.0104,-3.013,-3.0167,-3.0202,-3.0271,-3.0315,-3.0344,-3.039,-3.0449,-3.0499,-3.0512,-3.0532,-3.0534,-3.0549,-3.0513,-3.051,-3.0507,-3.0494,-3.0538,-3.0538,-3.0582,-3.0582,-3.0582]},{"header":{"parameterUnit":"m.s-1","parameterCategory":1,"la1":30.2991,"la2":30.254,"lo1":-89.0895,"lo2":-89.0444,"dy":0.0017,"dx":0.0017,"nx":28,"ny":28,"refTime":"2023-03-29T21:00:00:Z","depth":0,"parameterNumber":3,"parameterNumberName":"V-component_of_WINDS"},"data":[0,0,0,0,0,0,0,0,0,0,0,0,0,0,0,0,0,0,0,0,0,0,0,0,0,0,0,0,0,0,0,0,0,0,0,0,0,0,0,0,0,0,0,0,0,0,0,0,0,0,0,0,0,0,0,0,0,0,4.816,4.816,0,4.8144,4.8143,4.8143,4.8071,4.8069,4.8068,4.8066,4.805,4.8052,4.8053,0,0,0,0,0,0,0,0,0,0,0,0,0,4.8131,4.8132,4.816,4.816,4.816,4.8144,4.8143,4.8143,4.8071,4.8069,4.8067,4.8065,4.805,4.8051,4.8053,0,0,0,0,0,0,0,0,0,0,0,0,0,4.8132,4.8132,4.816,4.8122,4.8118,4.8144,4.8143,4.8143,4.8072,4.8069,4.8067,4.8064,4.805,4.8051,4.8053,4.8114,0,0,4.8058,4.8059,0,0,0,0,0,0,0,0,4.8132,4.8133,4.8128,4.8125,4.8121,4.8107,4.8127,4.8134,4.8072,4.8089,4.8066,4.8063,4.8071,4.8071,4.8074,4.8114,4.8113,4.8058,4.8059,4.806,4.8061,0,0,0,0,0,0,0,4.8132,4.8134,4.8154,4.8128,4.8123,4.8106,4.8103,4.8128,4.8095,4.8088,4.8082,4.8081,4.8069,4.8072,4.8073,4.8113,4.8058,4.806,4.8061,4.8062,4.8204,4.8206,0,0,0,0,0,0,4.8137,4.8134,4.8154,4.8153,4.812,4.8109,4.8106,4.8114,4.8094,4.8089,4.8084,4.8078,4.807,4.8071,4.8072,4.8143,4.806,4.8062,4.8063,4.8201,4.8204,4.8207,0,0,0,0,0,0,4.8137,4.814,4.8155,4.8142,4.8143,4.8112,4.8122,4.8115,4.8118,4.8091,4.8085,4.8093,4.8068,4.8069,4.8104,4.8141,4.8063,4.8064,4.8198,4.8202,4.8206,4.8286,0,0,0,0,0,0,4.8137,4.814,4.8163,4.8143,4.8144,4.8187,4.8124,4.8116,4.8121,4.8114,4.8098,4.8093,4.8066,4.8102,4.8106,4.8142,4.8066,4.8194,4.8199,4.8204,4.828,4.8292,4.8303,0,0,0,0,0,4.8136,4.8186,4.8164,4.8167,4.8171,4.819,4.819,4.8158,4.8124,4.8147,4.813,4.8094,4.8137,4.8107,4.811,4.8148,4.8192,4.8198,4.8204,4.8274,4.829,4.8302,0,0,0,0,0,0,4.8211,4.8183,4.8158,4.8203,4.8199,4.8177,4.8205,4.8174,4.818,4.8173,4.8133,4.813,4.8172,4.8163,4.813,4.8207,4.8158,4.8165,4.8211,4.8225,4.8236,4.8237,4.8067,0,0,0,0,0,4.8232,4.8249,4.8224,4.8266,4.8266,4.8236,4.8243,4.8218,4.8213,4.8211,4.8196,4.8193,4.8205,4.8214,4.8225,4.8278,4.8274,4.8306,4.8317,4.8327,4.8334,4.8362,4.8376,4.8227,4.8227,4.8227,0,0,4.8277,4.8264,4.8277,4.8281,4.8275,4.8294,4.8235,4.8257,4.8271,4.8214,4.8246,4.8236,4.8229,4.8274,4.8293,4.8268,4.8374,4.8335,4.8343,4.8344,4.837,4.8384,4.8397,4.8231,4.8231,4.823,0,0,4.8369,4.8361,4.8395,4.8391,4.8383,4.8363,4.8371,4.8354,4.8345,4.8377,4.8335,4.8351,4.8373,4.8371,4.8372,4.8465,4.8432,4.847,4.853,4.8558,4.857,4.858,4.8614,4.8626,4.8476,4.8477,4.8477,0,4.8426,4.8453,4.8417,4.8443,4.8446,4.8395,4.8431,4.8428,4.8424,4.8428,4.84,4.8428,4.842,4.8464,4.8487,4.8489,4.8499,4.8471,4.8571,4.8581,4.859,4.8621,4.8634,4.8481,4.8481,4.848,4.848,0,4.8524,4.8543,4.8572,4.857,4.8576,4.8607,4.8576,4.8588,4.8563,4.8546,4.858,4.8569,4.8576,4.8585,4.8561,4.8626,4.8611,4.8578,4.8528,4.8609,4.8638,4.865,4.8488,4.8486,4.8485,4.8484,0,0,4.8662,4.864,4.8651,4.865,4.8637,4.8652,4.8681,4.8688,4.8698,4.8698,4.8721,4.8742,4.8711,4.8713,4.8689,4.8714,4.8789,4.8677,4.8677,4.8699,4.8861,4.8886,4.8901,4.8767,4.8769,4.8771,4.8861,0,4.875,4.8797,4.8766,4.8819,4.8837,4.8789,4.8814,4.881,4.8796,4.8809,4.8793,4.8809,4.8767,4.8768,4.8791,4.8775,4.8821,4.8768,4.8789,4.8791,4.8793,4.8916,4.8942,4.9028,4.8872,4.8874,4.8876,0,4.8859,4.8863,4.8917,4.8902,4.8909,4.8932,4.8936,4.895,4.8944,4.8932,4.8935,4.8905,4.8933,4.8884,4.8923,4.8887,4.8894,4.8888,4.8891,4.8892,4.8838,4.892,4.9054,4.9068,4.8893,4.8892,4.889,0,4.8955,4.8974,4.9009,4.9009,4.8993,4.901,4.9004,4.8996,4.9003,4.9007,4.9011,4.9019,4.9023,4.903,4.9003,4.897,4.9046,4.8995,4.9037,4.9038,4.9055,4.9054,4.9192,4.9059,4.9059,4.9059,4.9058,0,4.9057,4.9092,4.9052,4.9074,4.9112,4.9077,4.9116,4.9105,4.9099,4.9118,4.9078,4.9097,4.906,4.9075,4.9054,4.909,4.9092,4.9083,4.9078,4.9087,4.9089,4.9091,4.9085,4.9062,4.9061,4.9061,4.906,0,4.917,4.9145,4.918,4.9162,4.9158,4.9188,4.9172,4.9192,4.9175,4.92,4.9204,4.9177,4.9194,4.9167,4.9181,4.9166,4.9216,4.9201,4.9218,4.9213,4.9257,4.9254,4.9403,4.9421,4.9276,4.9277,4.9278,0,4.9237,4.9263,4.9248,4.9258,4.9254,4.9271,4.9277,4.9244,4.9253,4.9249,4.927,4.9283,4.9291,4.932,4.9302,4.9312,4.9297,4.9349,4.9299,4.9308,4.9299,4.9298,4.9301,4.9359,4.9361,4.9362,4.9364,0,4.9359,4.9346,4.9356,4.9364,4.9373,4.9377,4.9378,4.9388,4.9353,4.9365,4.9381,4.9388,4.9402,4.9415,4.9421,4.9416,4.9385,4.938,4.939,4.94,4.941,4.9406,4.9246,4.9376,4.9375,4.9374,4.9373,4.9373,4.9452,4.9473,4.9466,4.948,4.9477,4.9479,4.9497,4.9483,4.9495,4.9504,4.9484,4.9505,4.95,4.9504,4.9502,4.9519,4.9496,4.9511,4.9515,4.952,4.9527,4.9407,4.952,4.9519,4.9519,4.9519,4.9518,0,4.9572,4.9565,4.9578,4.9581,4.9593,4.9562,4.9562,4.9573,4.9592,4.959,4.9599,4.9618,4.9632,4.9616,4.9626,4.9643,4.9629,4.9646,4.9645,4.9645,4.9546,4.9536,4.9658,4.9658,4.9658,4.9658,4.9658,4.9658,4.9636,4.9671,4.9657,4.969,4.9683,4.9703,4.9706,4.9708,4.9706,4.9729,4.974,4.9729,4.9721,4.9731,4.9742,4.9737,4.9743,4.9767,4.9757,4.9665,4.9651,4.9638,4.9629,4.9768,4.9768,4.9854,4.9855,4.9855]}]]